Terug naar catalogus

COSMOS 2275

GLONASS

ActiefNavigatieMEO
NORAD 23045·PAYLOAD·🇷🇺 Russia

Gelanceerd Apr 11, 1994 vanaf Baikonur Cosmodrome

Loading…

Volgende Passages (komende 24 uur)

TLE

VerouderendSource: Space-Track

Epoch: Sep 2, 2026, 07:02 UTC

1 23045U 94021C   26245.29349887 -.00000004  00000-0  00000+0 0  9993
2 23045  63.9151 297.8002 0027554  31.0111 335.1257  2.13101392251870

Volg COSMOS 2275 in realtime met AllMySat

Download on the App Store